Карточка аэропорта UNEE

Внимание!
Информация на этой странице в стадии наполнения.
Если вы не увидели какой-то информации, или заметили неточность - пожалуйста сообщите нам!
Спасибо!
Команда RU-STAFF
Название аэропортаКемерово
Название аэропорта (англ.)Kemerovo
Превышение873 ft. (266.1 m.)
Координаты55°16.2', 86°6.6'
Высота перехода500m
Эшелон переходаQFE>=760mm:FL030; QFE<=759=>733mm:FL040; QFE<=732mm:FL050
Коды ответчика5260-5267
Зона ОрВДНовосибирск РПИ (UNNT)
Данные METARUNEE 250930Z 12002MPS 9999 FEW036 29/18 Q1004 R23/////// NOSIG RMK QFE730
Проноз погоды (TAF)UNEE 250800Z 2509/2609 15003G08MPS 8000 SCT040CB TX30/2510Z TN18/2523Z TEMPO 2509/2515 26006G15MPS -TSRA BECMG 2602/2604 02003G08MPS
NOTAMshow/hide NOTAM
AWOS   TABLE

Информация о ВПП

ВПП Длина ВПП (м.) Покрытие Курс ВПП Частота ILS
053200Цементобетон46 
233200Цементобетон226109.1

Диспетчерские позиции

Позывной Наименование органа УВД Частота
UNEE_TWRКемерово-Старт118.3
UNEE_APPКемерово-Подход125.5



Спутниковое изображение